, NV

(GMT )
Las Vegas

Weather History for KBJN - October, 2012

Change the Weather History Date:

Monday, October 8, 2012

  Actual Average Record
Temperature  
Mean Temperature 58 °F -  
Max Temperature 72 °F - - ()
Min Temperature 45 °F - - ()
Degree Days  
Heating Degree Days 6    
Growing Degree Days 8 (Base 50)    
Moisture  
Dew Point 21 °F    
Average Humidity 27    
Maximum Humidity 46    
Minimum Humidity 11    
Precipitation  
Precipitation 0.00 in - - ()
Sea Level Pressure  
Sea Level Pressure 29.59 in    
Wind  
Wind Speed 8 mph (WSW)    
Max Wind Speed 16 mph    
Max Gust Speed 26 mph    
Visibility 10 miles    
Events      
Averages and records for this station are not official NWS values.
T = Trace of Precipitation, MM = Missing Value Source: NWS Daily Summary

Daily Weather History Graph

Daily Weather History Graph

Search for Another Location

Airport or City:

Trip Planner

Search our weather history database for the weather conditions in past years. The results will help you decide how hot, cold, wet, or windy it might be!

Date:

Astronomy

Oct. 08, 2012 Rise Set
Actual Time 6:47 AM PDT 6:16 PM PDT
Civil Twilight 6:21 AM PDT 6:43 PM PDT
Nautical Twilight 5:50 AM PDT 7:13 PM PDT
Astronomical Twilight 5:20 AM PDT 7:43 PM PDT
Moon No Moon Rise 2:02 PM PDT (10/8)
Length of Visible Light 12h 21m
Length of Day
11h 29m
Last Quarter, 45% of the Moon is Illuminated
Oct 8
Last Quarter
Oct 15
New
Oct 21
First Quarter
Oct 29
Full
Nov 6
Last Quarter

Hourly Weather History & Observations

Time (PDT) Temp. Windchill Dew Point Humidity Pressure Visibility Wind Dir Wind Speed Gust Speed Precip Events Conditions
12:56 AM 51.1 °F - 23.0 °F 33% 29.60 in 10.0 mi West 3.5 mph - N/A   Clear
1:56 AM 48.0 °F - 21.9 °F 36% 29.61 in 10.0 mi WNW 6.9 mph - N/A   Clear
2:56 AM 48.0 °F - 24.1 °F 39% 29.60 in 10.0 mi WNW 5.8 mph - N/A   Clear
3:56 AM 48.9 °F - 25.0 °F 39% 29.58 in 10.0 mi WNW 5.8 mph - N/A   Clear
4:56 AM 51.1 °F - 26.1 °F 38% 29.58 in 10.0 mi NW 10.4 mph - N/A   Clear
5:56 AM 46.9 °F - 25.0 °F 42% 29.61 in 10.0 mi WNW 9.2 mph - N/A   Clear
6:56 AM 45.0 °F 39.7 °F 25.0 °F 46% 29.64 in 10.0 mi NW 10.4 mph - N/A   Clear
7:56 AM 52.0 °F - 27.0 °F 38% 29.65 in 10.0 mi WNW 6.9 mph - N/A   Clear
8:56 AM 61.0 °F - 28.0 °F 29% 29.62 in 10.0 mi South 4.6 mph - N/A   Clear
9:56 AM 63.0 °F - 30.0 °F 29% 29.62 in 10.0 mi South 9.2 mph - N/A   Clear
10:56 AM 64.9 °F - 30.0 °F 27% 29.61 in 10.0 mi Variable 6.9 mph - N/A   Clear
11:56 AM 66.9 °F - 28.0 °F 23% 29.59 in 10.0 mi Calm Calm - N/A   Clear
12:56 PM 71.1 °F - 23.0 °F 16% 29.56 in 10.0 mi WSW 10.4 mph - N/A   Clear
2:56 PM 72.0 °F - 16.0 °F 12% 29.53 in 10.0 mi SSW 16.1 mph 20.7 mph N/A   Clear
3:56 PM 71.1 °F - 14.0 °F 11% 29.53 in 10.0 mi SSW 16.1 mph 26.5 mph N/A   Clear
4:56 PM 69.1 °F - 10.9 °F 11% 29.53 in 10.0 mi SW 11.5 mph 18.4 mph N/A   Clear
5:56 PM 66.0 °F - 12.0 °F 12% 29.55 in 10.0 mi South 10.4 mph - N/A   Clear
6:56 PM 61.0 °F - 18.0 °F 19% 29.58 in 10.0 mi SSW 9.2 mph - N/A   Clear
7:56 PM 57.9 °F - 17.1 °F 20% 29.58 in 10.0 mi SW 13.8 mph - N/A   Clear
8:56 PM 57.0 °F - 16.0 °F 20% 29.57 in 10.0 mi SW 10.4 mph - N/A   Clear
9:56 PM 52.0 °F - 16.0 °F 24% 29.58 in 10.0 mi WSW 9.2 mph - N/A   Clear
10:56 PM 52.0 °F - 16.0 °F 24% 29.57 in 10.0 mi SW 6.9 mph - N/A   Clear
11:56 PM 50.0 °F - 17.1 °F 27% 29.57 in 10.0 mi WSW 8.1 mph - N/A   Clear